CFG1KY EDDF-EGKK

Flight info

Callsign CFG1KY
Flight time 1h 13m
Altitude 34000
Route SOBRA2L/18 SOBRA Y180 BITBU Y181 DEMUL M624 BUB L608 DENUT L610 TEBRA
Aircraft E190/M-SDE3GILORVW/S

Departure

Time 2026-04-14 10:04
Airport Frankfurt Main Airport (EDDF)

Arrival

Time 2026-04-14 11:17
Airport London Gatwick Airport (EGKK)
Time Latitude Longitude Altitude Speed Heading
2026-04-14 09:16 50.04929 8.58942 361 ft 0 kts 160°
2026-04-14 09:44 50.04931 8.58941 361 ft 1 kts 160°
2026-04-14 09:44 50.04947 8.58931 364 ft 3 kts 160°
2026-04-14 09:44 50.04966 8.58920 361 ft 3 kts 160°
2026-04-14 09:44 50.04985 8.58910 364 ft 2 kts 160°
2026-04-14 09:45 50.05003 8.58901 361 ft 3 kts 178°
2026-04-14 09:45 50.05021 8.58904 358 ft 3 kts 217°
2026-04-14 09:45 50.05034 8.58926 361 ft 3 kts 247°
2026-04-14 09:45 50.05040 8.58950 364 ft 1 kts 250°
2026-04-14 09:46 50.05044 8.58969 362 ft 2 kts 250°
2026-04-14 09:46 50.05047 8.58979 364 ft 1 kts 250°
2026-04-14 09:49 50.05042 8.58959 360 ft 5 kts 250°
2026-04-14 09:50 50.05023 8.58880 358 ft 11 kts 250°
2026-04-14 09:50 50.04993 8.58754 360 ft 14 kts 250°
2026-04-14 09:50 50.04960 8.58615 362 ft 12 kts 249°
2026-04-14 09:50 50.04935 8.58513 359 ft 11 kts 251°
2026-04-14 09:51 50.04906 8.58390 359 ft 13 kts 249°
2026-04-14 09:51 50.04878 8.58271 362 ft 11 kts 249°
2026-04-14 09:51 50.04848 8.58149 358 ft 13 kts 249°
2026-04-14 09:51 50.04813 8.58004 359 ft 13 kts 250°
2026-04-14 09:52 50.04755 8.57924 356 ft 12 kts 186°
2026-04-14 09:52 50.04694 8.57847 356 ft 13 kts 247°
2026-04-14 09:52 50.04661 8.57702 361 ft 15 kts 249°
2026-04-14 09:52 50.04622 8.57541 358 ft 16 kts 249°
2026-04-14 09:53 50.04584 8.57383 362 ft 16 kts 249°
2026-04-14 09:53 50.04547 8.57229 362 ft 16 kts 250°
2026-04-14 09:53 50.04507 8.57062 359 ft 17 kts 250°
2026-04-14 09:53 50.04464 8.56884 360 ft 17 kts 250°
2026-04-14 09:54 50.04425 8.56714 361 ft 14 kts 250°
2026-04-14 09:54 50.04388 8.56564 357 ft 16 kts 250°
2026-04-14 09:54 50.04346 8.56388 357 ft 19 kts 249°
2026-04-14 09:54 50.04302 8.56203 357 ft 17 kts 250°
2026-04-14 09:55 50.04265 8.56050 358 ft 14 kts 249°
2026-04-14 09:55 50.04230 8.55898 355 ft 15 kts 249°
2026-04-14 09:55 50.04190 8.55733 356 ft 17 kts 250°
2026-04-14 09:55 50.04151 8.55572 353 ft 16 kts 250°
2026-04-14 09:56 50.04116 8.55423 353 ft 14 kts 250°
2026-04-14 09:56 50.04083 8.55282 354 ft 14 kts 250°
2026-04-14 09:56 50.04048 8.55139 355 ft 15 kts 250°
2026-04-14 09:56 50.04014 8.54997 354 ft 14 kts 249°
2026-04-14 09:57 50.03979 8.54852 358 ft 14 kts 250°
2026-04-14 09:57 50.03948 8.54722 355 ft 12 kts 250°
2026-04-14 09:57 50.03914 8.54582 350 ft 15 kts 249°
2026-04-14 09:57 50.03879 8.54432 350 ft 13 kts 250°
2026-04-14 09:58 50.03842 8.54330 346 ft 11 kts 233°
2026-04-14 09:58 50.03799 8.54220 353 ft 12 kts 248°
2026-04-14 09:58 50.03767 8.54085 346 ft 15 kts 250°
2026-04-14 09:58 50.03730 8.53929 345 ft 16 kts 250°
2026-04-14 09:59 50.03690 8.53762 337 ft 17 kts 249°
2026-04-14 09:59 50.03649 8.53598 337 ft 15 kts 248°
2026-04-14 09:59 50.03611 8.53446 338 ft 14 kts 249°
2026-04-14 09:59 50.03576 8.53300 334 ft 14 kts 250°
2026-04-14 10:00 50.03542 8.53159 335 ft 14 kts 250°
2026-04-14 10:00 50.03515 8.53046 335 ft 9 kts 250°
2026-04-14 10:00 50.03493 8.52955 336 ft 9 kts 249°
2026-04-14 10:00 50.03466 8.52853 331 ft 12 kts 246°
2026-04-14 10:01 50.03438 8.52748 332 ft 9 kts 249°
2026-04-14 10:01 50.03416 8.52654 333 ft 8 kts 251°
2026-04-14 10:01 50.03391 8.52595 333 ft 5 kts 205°
2026-04-14 10:01 50.03363 8.52593 334 ft 4 kts 177°
2026-04-14 10:02 50.03356 8.52593 333 ft 0 kts 178°
2026-04-14 10:03 50.03310 8.52594 334 ft 30 kts 179°
2026-04-14 10:04 50.02868 8.52600 331 ft 98 kts 179°
2026-04-14 10:04 50.01984 8.52607 340 ft 153 kts 180°
2026-04-14 10:04 50.00837 8.52624 719 ft 176 kts 180°
2026-04-14 10:04 49.99543 8.52695 1308 ft 193 kts 177°
2026-04-14 10:05 49.98177 8.52808 1989 ft 199 kts 177°
2026-04-14 10:05 49.97232 8.52880 2421 ft 203 kts 177°
2026-04-14 10:05 49.95314 8.53040 3200 ft 215 kts 177°
2026-04-14 10:05 49.93777 8.53114 3650 ft 229 kts 177°
2026-04-14 10:06 49.92692 8.53168 4070 ft 230 kts 177°
2026-04-14 10:06 49.91089 8.53259 4701 ft 233 kts 177°
2026-04-14 10:06 49.89459 8.53359 5340 ft 241 kts 178°
2026-04-14 10:06 49.87766 8.53451 6052 ft 245 kts 181°
2026-04-14 10:07 49.86025 8.52982 6462 ft 263 kts 198°
2026-04-14 10:07 49.84268 8.51976 6952 ft 275 kts 202°
2026-04-14 10:07 49.82482 8.50877 7392 ft 282 kts 203°
2026-04-14 10:07 49.80614 8.49751 7092 ft 286 kts 202°
2026-04-14 10:08 49.78796 8.48690 7292 ft 274 kts 202°
2026-04-14 10:08 49.77114 8.47317 7970 ft 274 kts 221°
2026-04-14 10:08 49.76020 8.44946 8643 ft 274 kts 251°
2026-04-14 10:08 49.75741 8.42048 9338 ft 277 kts 274°
2026-04-14 10:09 49.76085 8.39106 10095 ft 279 kts 282°
2026-04-14 10:09 49.76539 8.36118 10493 ft 294 kts 283°
2026-04-14 10:09 49.77070 8.32963 10792 ft 312 kts 284°
2026-04-14 10:09 49.77666 8.29652 11154 ft 325 kts 284°
2026-04-14 10:10 49.78291 8.26257 11724 ft 330 kts 285°
2026-04-14 10:10 49.78940 8.22831 12296 ft 333 kts 285°
2026-04-14 10:10 49.79540 8.19363 12521 ft 334 kts 282°
2026-04-14 10:10 49.80079 8.15876 12847 ft 334 kts 282°
2026-04-14 10:11 49.80622 8.12380 13082 ft 334 kts 282°
2026-04-14 10:11 49.81170 8.08869 13191 ft 337 kts 282°
2026-04-14 10:11 49.81724 8.05360 13187 ft 335 kts 282°
2026-04-14 10:11 49.82275 8.01861 13178 ft 334 kts 282°
2026-04-14 10:12 49.82826 7.98360 13183 ft 334 kts 282°
2026-04-14 10:12 49.83374 7.94874 13666 ft 334 kts 282°
2026-04-14 10:12 49.83927 7.91360 14266 ft 337 kts 282°
2026-04-14 10:12 49.84482 7.87815 14813 ft 341 kts 282°
2026-04-14 10:13 49.85042 7.84232 15395 ft 344 kts 282°
2026-04-14 10:13 49.85611 7.80585 15969 ft 348 kts 282°
2026-04-14 10:13 49.86181 7.76924 16543 ft 351 kts 282°
2026-04-14 10:13 49.86761 7.73240 17093 ft 355 kts 282°
2026-04-14 10:14 49.87352 7.69519 17701 ft 357 kts 283°
2026-04-14 10:14 49.87942 7.65745 18257 ft 362 kts 283°
2026-04-14 10:14 49.88528 7.61941 18903 ft 362 kts 283°
2026-04-14 10:14 49.89112 7.58128 19432 ft 365 kts 282°
2026-04-14 10:15 49.89700 7.54275 19924 ft 370 kts 282°
2026-04-14 10:15 49.90300 7.50359 20502 ft 372 kts 282°
2026-04-14 10:15 49.90900 7.46453 21004 ft 375 kts 282°
2026-04-14 10:15 49.91507 7.42493 21495 ft 378 kts 282°
2026-04-14 10:16 49.92113 7.38518 21983 ft 380 kts 282°
2026-04-14 10:16 49.92723 7.34506 22465 ft 383 kts 282°
2026-04-14 10:16 49.93325 7.30523 22932 ft 385 kts 282°
2026-04-14 10:16 49.93943 7.26425 23458 ft 386 kts 283°
2026-04-14 10:17 49.94557 7.22354 23871 ft 390 kts 283°
2026-04-14 10:17 49.95176 7.18249 24273 ft 392 kts 283°
2026-04-14 10:17 49.95797 7.14123 24695 ft 394 kts 283°
2026-04-14 10:17 49.96413 7.10011 25026 ft 397 kts 283°
2026-04-14 10:18 49.97666 7.01591 25938 ft 399 kts 283°
2026-04-14 10:18 49.98285 6.97410 26302 ft 404 kts 283°
2026-04-14 10:18 49.98916 6.93143 26764 ft 405 kts 283°
2026-04-14 10:19 49.99263 6.88810 27060 ft 408 kts 270°
2026-04-14 10:19 49.99206 6.84398 27393 ft 409 kts 269°
2026-04-14 10:19 49.99069 6.79985 27720 ft 410 kts 268°
2026-04-14 10:19 49.98897 6.75507 28016 ft 412 kts 268°
2026-04-14 10:20 49.98740 6.71112 28316 ft 414 kts 268°
2026-04-14 10:20 49.98603 6.66643 28642 ft 416 kts 269°
2026-04-14 10:20 49.98476 6.62130 28945 ft 417 kts 269°
2026-04-14 10:20 49.98348 6.57654 29261 ft 418 kts 269°
2026-04-14 10:21 49.98210 6.53136 29724 ft 416 kts 269°
2026-04-14 10:21 49.98065 6.48630 29826 ft 422 kts 269°
2026-04-14 10:21 49.97917 6.44071 30112 ft 423 kts 269°
2026-04-14 10:21 49.97768 6.39509 30545 ft 420 kts 269°
2026-04-14 10:22 49.97618 6.34980 30760 ft 422 kts 269°
2026-04-14 10:22 49.97468 6.30418 31094 ft 420 kts 270°
2026-04-14 10:22 49.97317 6.25899 31374 ft 420 kts 270°
2026-04-14 10:22 49.97162 6.21348 31636 ft 420 kts 270°
2026-04-14 10:23 49.97009 6.16883 31928 ft 420 kts 270°
2026-04-14 10:23 49.96849 6.12314 32218 ft 419 kts 270°
2026-04-14 10:23 49.96680 6.07834 32496 ft 419 kts 270°
2026-04-14 10:23 49.96507 6.03332 32769 ft 418 kts 270°
2026-04-14 10:24 49.96337 5.98776 33043 ft 418 kts 270°
2026-04-14 10:24 49.96521 5.94293 33227 ft 413 kts 286°
2026-04-14 10:24 49.97518 5.90245 33596 ft 403 kts 303°
2026-04-14 10:24 49.99190 5.86850 34041 ft 394 kts 317°
2026-04-14 10:25 50.01381 5.84280 34114 ft 396 kts 333°
2026-04-14 10:25 50.03944 5.82666 34146 ft 401 kts 340°
2026-04-14 10:25 50.09067 5.79213 34187 ft 399 kts 326°
2026-04-14 10:26 50.13288 5.73495 34239 ft 405 kts 319°
2026-04-14 10:26 50.17366 5.67422 34167 ft 403 kts 316°
2026-04-14 10:27 50.21334 5.61188 34194 ft 405 kts 316°
2026-04-14 10:27 50.25343 5.55002 34195 ft 405 kts 317°
2026-04-14 10:28 50.29338 5.48862 34224 ft 397 kts 317°
2026-04-14 10:28 50.33272 5.42767 34203 ft 400 kts 316°
2026-04-14 10:29 50.37198 5.36666 34202 ft 400 kts 316°
2026-04-14 10:29 50.41148 5.30522 34206 ft 400 kts 316°
2026-04-14 10:30 50.45081 5.24388 34203 ft 400 kts 316°
2026-04-14 10:30 50.49034 5.18206 34212 ft 399 kts 316°
2026-04-14 10:31 50.52960 5.12049 34206 ft 400 kts 316°
2026-04-14 10:31 50.56877 5.05893 34208 ft 396 kts 316°
2026-04-14 10:32 50.60782 4.99740 34213 ft 397 kts 316°
2026-04-14 10:32 50.64685 4.93574 34211 ft 397 kts 316°
2026-04-14 10:33 50.68590 4.87448 34211 ft 397 kts 317°
2026-04-14 10:33 50.72588 4.81434 34212 ft 397 kts 317°
2026-04-14 10:34 50.78534 4.72297 34231 ft 397 kts 316°
2026-04-14 10:35 50.82457 4.66052 34213 ft 396 kts 316°
2026-04-14 10:35 50.86338 4.59941 34214 ft 395 kts 316°
2026-04-14 10:36 50.90136 4.53693 34227 ft 396 kts 307°
2026-04-14 10:36 50.93094 4.46286 34192 ft 396 kts 304°
2026-04-14 10:37 50.95992 4.38825 34213 ft 398 kts 303°
2026-04-14 10:37 50.98838 4.31324 34210 ft 397 kts 303°
2026-04-14 10:38 51.01697 4.23803 34200 ft 397 kts 303°
2026-04-14 10:38 51.04561 4.16280 34209 ft 398 kts 303°
2026-04-14 10:39 51.07414 4.08744 34196 ft 397 kts 303°
2026-04-14 10:39 51.10261 4.01200 34202 ft 397 kts 303°
2026-04-14 10:40 51.13096 3.93670 34194 ft 397 kts 303°
2026-04-14 10:40 51.15935 3.86108 34191 ft 397 kts 303°
2026-04-14 10:41 51.18768 3.78537 34175 ft 396 kts 303°
2026-04-14 10:41 51.21104 3.72275 34188 ft 395 kts 303°
2026-04-14 10:42 51.23779 3.62986 34219 ft 402 kts 287°
2026-04-14 10:42 51.25079 3.54294 34179 ft 402 kts 287°
2026-04-14 10:43 51.26302 3.45569 34195 ft 403 kts 286°
2026-04-14 10:43 51.27451 3.36805 34199 ft 403 kts 285°
2026-04-14 10:44 51.28379 3.29525 34214 ft 400 kts 285°
2026-04-14 10:44 51.29494 3.20796 34210 ft 400 kts 285°
2026-04-14 10:45 51.30610 3.12075 34205 ft 400 kts 285°
2026-04-14 10:45 51.31712 3.03380 34209 ft 400 kts 285°
2026-04-14 10:46 51.32808 2.94653 34212 ft 400 kts 285°
2026-04-14 10:46 51.33901 2.85921 34190 ft 400 kts 285°
2026-04-14 10:47 51.34977 2.77248 34207 ft 397 kts 285°
2026-04-14 10:47 51.36051 2.68568 34204 ft 397 kts 285°
2026-04-14 10:48 51.37111 2.59964 34199 ft 397 kts 285°
2026-04-14 10:48 51.38173 2.51278 34199 ft 397 kts 285°
2026-04-14 10:49 51.39230 2.42588 34194 ft 397 kts 285°
2026-04-14 10:49 51.40264 2.33994 34187 ft 387 kts 285°
2026-04-14 10:50 51.41287 2.25501 34198 ft 389 kts 285°
2026-04-14 10:50 51.42325 2.16986 34188 ft 389 kts 285°
2026-04-14 10:51 51.43368 2.08474 34186 ft 389 kts 285°
2026-04-14 10:51 51.44387 2.00023 34164 ft 375 kts 285°
2026-04-14 10:51 51.44860 1.95995 33929 ft 360 kts 285°
2026-04-14 10:52 51.45317 1.92084 33410 ft 353 kts 285°
2026-04-14 10:52 51.45772 1.88229 32677 ft 351 kts 286°
2026-04-14 10:52 51.46228 1.84370 31815 ft 354 kts 285°
2026-04-14 10:52 51.46680 1.80469 30872 ft 358 kts 285°
2026-04-14 10:53 51.47137 1.76516 29765 ft 364 kts 285°
2026-04-14 10:53 51.47602 1.72483 28475 ft 371 kts 284°
2026-04-14 10:53 51.48072 1.68378 27244 ft 377 kts 284°
2026-04-14 10:53 51.48338 1.64170 26140 ft 386 kts 270°
2026-04-14 10:54 51.47659 1.60028 25231 ft 397 kts 248°
2026-04-14 10:54 51.46265 1.56205 24460 ft 396 kts 242°
2026-04-14 10:54 51.44764 1.52525 23694 ft 392 kts 241°
2026-04-14 10:54 51.43297 1.48922 23430 ft 376 kts 241°
2026-04-14 10:55 51.41886 1.45352 22824 ft 382 kts 242°
2026-04-14 10:55 51.40469 1.41758 22295 ft 381 kts 242°
2026-04-14 10:55 51.39060 1.38182 21784 ft 379 kts 242°
2026-04-14 10:55 51.37663 1.34635 21302 ft 375 kts 241°
2026-04-14 10:56 51.36184 1.31235 20941 ft 371 kts 239°
2026-04-14 10:56 51.34750 1.27819 20718 ft 370 kts 239°
2026-04-14 10:56 51.33311 1.24410 20497 ft 370 kts 239°
2026-04-14 10:56 51.31871 1.21006 20233 ft 370 kts 239°
2026-04-14 10:57 51.30430 1.17605 19980 ft 368 kts 239°
2026-04-14 10:57 51.29006 1.14236 19736 ft 367 kts 239°
2026-04-14 10:57 51.27576 1.10858 19489 ft 365 kts 239°
2026-04-14 10:57 51.26159 1.07514 19252 ft 363 kts 239°
2026-04-14 10:58 51.24746 1.04180 19013 ft 361 kts 239°
2026-04-14 10:58 51.23340 1.00869 18783 ft 360 kts 238°
2026-04-14 10:58 51.21941 0.97570 18549 ft 358 kts 238°
2026-04-14 10:58 51.20547 0.94288 18290 ft 357 kts 238°
2026-04-14 10:59 51.19155 0.91010 17980 ft 357 kts 238°
2026-04-14 10:59 51.17767 0.87742 17699 ft 355 kts 238°
2026-04-14 10:59 51.16383 0.84482 17420 ft 354 kts 238°
2026-04-14 10:59 51.15009 0.81243 17149 ft 352 kts 238°
2026-04-14 11:00 51.13642 0.78018 16869 ft 351 kts 238°
2026-04-14 11:00 51.12280 0.74807 16595 ft 349 kts 238°
2026-04-14 11:00 51.10881 0.71651 16330 ft 348 kts 237°
2026-04-14 11:00 51.09640 0.68370 16069 ft 345 kts 244°
2026-04-14 11:01 51.08521 0.65003 15744 ft 345 kts 244°
2026-04-14 11:01 51.07391 0.61674 15362 ft 343 kts 243°
2026-04-14 11:01 51.06246 0.58363 14975 ft 339 kts 242°
2026-04-14 11:01 51.05097 0.55153 14602 ft 327 kts 242°
2026-04-14 11:02 51.03980 0.52070 14241 ft 316 kts 242°
2026-04-14 11:02 51.02897 0.49101 13893 ft 306 kts 242°
2026-04-14 11:02 51.01848 0.46209 13472 ft 299 kts 242°
2026-04-14 11:02 51.00822 0.43383 12957 ft 292 kts 242°
2026-04-14 11:03 50.99835 0.40670 12430 ft 278 kts 242°
2026-04-14 11:03 50.98865 0.37998 11885 ft 280 kts 242°
2026-04-14 11:03 50.97892 0.35327 11350 ft 279 kts 242°
2026-04-14 11:03 50.96921 0.32662 10818 ft 279 kts 242°
2026-04-14 11:04 50.95952 0.30008 10302 ft 278 kts 242°
2026-04-14 11:04 50.94977 0.27334 9581 ft 281 kts 242°
2026-04-14 11:04 50.94180 0.24536 8775 ft 278 kts 259°
2026-04-14 11:04 50.94281 0.21561 7984 ft 270 kts 288°
2026-04-14 11:05 50.95349 0.19156 7236 ft 270 kts 315°
2026-04-14 11:05 50.96903 0.17481 6552 ft 269 kts 327°
2026-04-14 11:05 50.98473 0.16008 6053 ft 258 kts 324°
2026-04-14 11:05 50.99949 0.14415 5540 ft 255 kts 320°
2026-04-14 11:06 51.01328 0.12727 5279 ft 247 kts 312°
2026-04-14 11:06 51.02171 0.10491 5036 ft 230 kts 276°
2026-04-14 11:06 51.02219 0.08078 5134 ft 221 kts 263°
2026-04-14 11:06 51.02131 0.05567 4791 ft 230 kts 264°
2026-04-14 11:07 51.02127 0.03031 4517 ft 229 kts 267°
2026-04-14 11:07 51.02189 0.00516 4285 ft 226 kts 268°
2026-04-14 11:07 51.02284 -0.01962 4080 ft 224 kts 268°
2026-04-14 11:07 51.02381 -0.04405 3921 ft 222 kts 268°
2026-04-14 11:08 51.02482 -0.06868 3760 ft 224 kts 269°
2026-04-14 11:08 51.02584 -0.09345 3598 ft 226 kts 269°
2026-04-14 11:08 51.02694 -0.11829 3447 ft 225 kts 269°
2026-04-14 11:08 51.02806 -0.14322 3274 ft 224 kts 268°
2026-04-14 11:09 51.02914 -0.16789 3112 ft 224 kts 268°
2026-04-14 11:09 51.03015 -0.19242 2995 ft 220 kts 268°
2026-04-14 11:09 51.03117 -0.21653 3037 ft 222 kts 269°
2026-04-14 11:10 51.03333 -0.26596 3079 ft 226 kts 268°
2026-04-14 11:10 51.03439 -0.29091 2955 ft 227 kts 269°
2026-04-14 11:10 51.03542 -0.31550 2974 ft 222 kts 269°
2026-04-14 11:10 51.03640 -0.33989 2989 ft 222 kts 268°
2026-04-14 11:11 51.03740 -0.36448 3002 ft 223 kts 268°
2026-04-14 11:11 51.03837 -0.38914 3003 ft 224 kts 268°
2026-04-14 11:11 51.03935 -0.41379 2992 ft 223 kts 268°
2026-04-14 11:11 51.04033 -0.43833 2984 ft 222 kts 269°
2026-04-14 11:12 51.04128 -0.46278 2995 ft 221 kts 268°
2026-04-14 11:12 51.04223 -0.48722 3009 ft 222 kts 270°
2026-04-14 11:12 51.04697 -0.51089 3003 ft 233 kts 297°
2026-04-14 11:12 51.05919 -0.52782 3016 ft 244 kts 334°
2026-04-14 11:13 51.07628 -0.53039 3014 ft 250 kts 14°
2026-04-14 11:13 51.09094 -0.51677 3049 ft 245 kts 47°
2026-04-14 11:13 51.10224 -0.49701 3080 ft 244 kts 53°
2026-04-14 11:13 51.10981 -0.47311 2995 ft 237 kts 83°
2026-04-14 11:14 51.11208 -0.44785 2985 ft 235 kts 86°
2026-04-14 11:14 51.11567 -0.42236 3008 ft 236 kts 79°
2026-04-14 11:14 51.11987 -0.39629 2676 ft 242 kts 82°
2026-04-14 11:14 51.12304 -0.37079 2359 ft 230 kts 83°
2026-04-14 11:15 51.12639 -0.34703 2022 ft 211 kts 83°
2026-04-14 11:15 51.12953 -0.32538 1751 ft 189 kts 84°
2026-04-14 11:15 51.13217 -0.30595 1486 ft 171 kts 84°
2026-04-14 11:15 51.13461 -0.28816 1276 ft 160 kts 83°
2026-04-14 11:16 51.13696 -0.27147 1047 ft 150 kts 83°
2026-04-14 11:16 51.13914 -0.25564 844 ft 143 kts 84°
2026-04-14 11:16 51.14131 -0.23998 655 ft 146 kts 85°
2026-04-14 11:16 51.14354 -0.22439 457 ft 142 kts 84°
2026-04-14 11:17 51.14556 -0.20922 273 ft 138 kts 82°
2026-04-14 11:17 51.14748 -0.19515 213 ft 117 kts 80°
2026-04-14 11:17 51.14887 -0.18514 211 ft 69 kts 77°
2026-04-14 11:17 51.14970 -0.18013 211 ft 28 kts 64°
2026-04-14 11:18 51.15045 -0.17823 207 ft 15 kts 52°
2026-04-14 11:18 51.15113 -0.17760 204 ft 10 kts 354°
2026-04-14 11:18 51.15181 -0.17773 214 ft 10 kts 353°
2026-04-14 11:18 51.15251 -0.17771 204 ft 8 kts 28°
2026-04-14 11:19 51.15270 -0.17678 204 ft 10 kts 77°
2026-04-14 11:19 51.15288 -0.17551 204 ft 13 kts 78°
2026-04-14 11:19 51.15302 -0.17417 213 ft 10 kts 79°
2026-04-14 11:19 51.15354 -0.17352 207 ft 10 kts 40°
2026-04-14 11:20 51.15380 -0.17237 214 ft 13 kts 73°
2026-04-14 11:20 51.15408 -0.17125 212 ft 12 kts 70°
2026-04-14 11:20 51.15427 -0.16993 204 ft 13 kts 78°
2026-04-14 11:20 51.15445 -0.16858 204 ft 9 kts 77°
2026-04-14 11:21 51.15451 -0.16758 208 ft 10 kts 104°
2026-04-14 11:21 51.15454 -0.16636 207 ft 10 kts 78°
2026-04-14 11:21 51.15472 -0.16576 212 ft 4 kts 20°
2026-04-14 11:21 51.15501 -0.16589 206 ft 6 kts 346°
2026-04-14 11:22 51.15527 -0.16599 204 ft 2 kts 347°
2026-04-14 11:22 51.15532 -0.16601 204 ft 0 kts 348°